Time,TemperatureF,DewpointF,PressureIn,WindDirection,WindDirectionDegrees,WindSpeedMPH,WindSpeedGustMPH,Humidity,HourlyPrecipIn,Conditions,Clouds,dailyrainin,SoftwareType,DateUTC
2013-12-26 00:22:00,28.0,23.0,30.40,NW,325,0.0,2.0,81,0.00,,,0.00,,2013-12-26 05:22:00,
2013-12-26 00:43:00,27.0,22.0,30.40,NW,325,0.0,0.0,81,0.00,,,0.00,,2013-12-26 05:43:00,
2013-12-26 00:53:00,27.0,23.0,30.40,NW,325,0.0,2.0,83,0.00,,,0.00,,2013-12-26 05:53:00,
2013-12-26 01:12:00,27.0,23.0,30.40,NW,325,0.0,2.0,85,0.00,,,0.00,,2013-12-26 06:12:00,
2013-12-26 01:22:00,27.0,23.0,30.41,NW,325,0.0,1.0,85,0.00,,,0.00,,2013-12-26 06:22:00,
2013-12-26 01:42:00,26.0,22.0,30.40,NW,325,0.0,0.0,86,0.00,,,0.00,,2013-12-26 06:42:00,
2013-12-26 01:52:00,26.0,23.0,30.39,NW,325,0.0,0.0,87,0.00,,,0.00,,2013-12-26 06:52:00,
2013-12-26 02:22:00,25.0,22.0,30.39,NW,325,0.0,0.0,89,0.00,,,0.00,,2013-12-26 07:22:00,
2013-12-26 02:42:00,24.0,21.0,30.39,NW,325,0.0,0.0,89,0.00,,,0.00,,2013-12-26 07:42:00,
2013-12-26 02:52:00,24.0,22.0,30.40,NW,325,0.0,0.0,90,0.00,,,0.00,,2013-12-26 07:52:00,
2013-12-26 03:22:00,24.0,22.0,30.39,NW,325,0.0,0.0,91,0.00,,,0.00,,2013-12-26 08:22:00,
2013-12-26 03:42:00,23.0,21.0,30.39,NW,325,0.0,0.0,91,0.00,,,0.00,,2013-12-26 08:42:00,
2013-12-26 03:53:00,23.0,21.0,30.39,NW,325,0.0,0.0,91,0.00,,,0.00,,2013-12-26 08:53:00,
2013-12-26 04:12:00,23.0,21.0,30.39,NW,325,0.0,0.0,92,0.00,,,0.00,,2013-12-26 09:12:00,
2013-12-26 04:22:00,22.0,20.0,30.39,NW,325,0.0,1.0,93,0.00,,,0.00,,2013-12-26 09:22:00,
2013-12-26 04:43:00,22.0,20.0,30.39,NW,325,0.0,0.0,93,0.00,,,0.00,,2013-12-26 09:43:00,
2013-12-26 04:53:00,22.0,20.0,30.39,NW,325,0.0,0.0,93,0.00,,,0.00,,2013-12-26 09:53:00,
2013-12-26 05:22:00,22.0,20.0,30.38,NW,325,0.0,0.0,93,0.00,,,0.00,,2013-12-26 10:22:00,
2013-12-26 05:43:00,22.0,21.0,30.38,NW,325,0.0,0.0,94,0.00,,,0.00,,2013-12-26 10:43:00,
2013-12-26 05:52:00,22.0,21.0,30.38,NW,325,0.0,0.0,95,0.00,,,0.00,,2013-12-26 10:52:00,
2013-12-26 06:12:00,22.0,21.0,30.39,NW,325,0.0,0.0,94,0.00,,,0.00,,2013-12-26 11:12:00,
2013-12-26 06:22:00,21.0,20.0,30.38,NW,325,0.0,0.0,94,0.00,,,0.00,,2013-12-26 11:22:00,
2013-12-26 06:43:00,21.0,20.0,30.39,NW,325,0.0,1.0,94,0.00,,,0.00,,2013-12-26 11:43:00,
2013-12-26 06:52:00,21.0,20.0,30.39,NW,325,0.0,0.0,94,0.00,,,0.00,,2013-12-26 11:52:00,
2013-12-26 07:22:00,21.0,20.0,30.39,NW,325,0.0,0.0,95,0.00,,,0.00,,2013-12-26 12:22:00,
2013-12-26 07:42:00,21.0,20.0,30.40,NW,325,0.0,0.0,95,0.00,,,0.00,,2013-12-26 12:42:00,
2013-12-26 07:53:00,20.0,19.0,30.39,NW,325,0.0,0.0,95,0.00,,,0.00,,2013-12-26 12:53:00,
2013-12-26 08:22:00,20.0,19.0,30.40,NW,325,0.0,0.0,95,0.00,,,0.00,,2013-12-26 13:22:00,
2013-12-26 08:42:00,20.0,19.0,30.41,NW,325,0.0,0.0,95,0.00,,,0.00,,2013-12-26 13:42:00,
2013-12-26 08:52:00,20.0,19.0,30.41,NW,325,0.0,0.0,95,0.00,,,0.00,,2013-12-26 13:52:00,
2013-12-26 09:12:00,20.0,19.0,30.41,NW,325,0.0,0.0,95,0.00,,,0.00,,2013-12-26 14:12:00,
2013-12-26 09:22:00,20.0,19.0,30.42,NW,325,0.0,0.0,95,0.00,,,0.00,,2013-12-26 14:22:00,
2013-12-26 09:42:00,20.0,19.0,30.42,NW,325,0.0,0.0,95,0.00,,,0.00,,2013-12-26 14:42:00,
2013-12-26 09:52:00,21.0,20.0,30.42,NW,325,0.0,0.0,96,0.00,,,0.00,,2013-12-26 14:52:00,
2013-12-26 10:12:00,22.0,21.0,30.42,NW,325,0.0,0.0,96,0.00,,,0.00,,2013-12-26 15:12:00,
2013-12-26 10:22:00,22.0,21.0,30.43,NW,325,0.0,0.0,97,0.00,,,0.00,,2013-12-26 15:22:00,
2013-12-26 10:53:00,25.0,24.0,30.43,NW,325,0.0,0.0,96,0.00,,,0.00,,2013-12-26 15:53:00,
2013-12-26 11:23:00,27.0,25.0,30.42,NW,325,0.0,1.0,91,0.00,,,0.00,,2013-12-26 16:23:00,
2013-12-26 11:42:00,29.0,26.0,30.42,NW,325,1.0,2.0,88,0.00,,,0.00,,2013-12-26 16:42:00,
2013-12-26 11:53:00,31.0,27.0,30.41,NW,325,1.0,2.0,86,0.00,,,0.00,,2013-12-26 16:53:00,
2013-12-26 12:23:00,34.0,27.0,30.40,NW,325,1.0,3.0,76,0.00,,,0.00,,2013-12-26 17:23:00,
2013-12-26 12:43:00,36.0,28.0,30.39,NW,325,0.0,3.0,71,0.00,,,0.00,,2013-12-26 17:43:00,
2013-12-26 12:52:00,37.0,28.0,30.38,South,171,0.0,3.0,69,0.00,,,0.00,,2013-12-26 17:52:00,
2013-12-26 13:12:00,38.0,28.0,30.37,South,171,0.0,3.0,68,0.00,,,0.00,,2013-12-26 18:12:00,
2013-12-26 13:22:00,39.0,28.0,30.37,WSW,248,0.0,3.0,65,0.00,,,0.00,,2013-12-26 18:22:00,
2013-12-26 13:42:00,40.0,28.0,30.35,WNW,300,0.0,3.0,62,0.00,,,0.00,,2013-12-26 18:42:00,
2013-12-26 13:52:00,41.0,29.0,30.35,WSW,245,0.0,3.0,61,0.00,,,0.00,,2013-12-26 18:52:00,
2013-12-26 14:11:00,41.0,29.0,30.34,West,268,0.0,2.0,62,0.00,,,0.00,,2013-12-26 19:11:00,
2013-12-26 14:22:00,42.0,29.0,30.34,West,259,0.0,2.0,59,0.00,,,0.00,,2013-12-26 19:22:00,
2013-12-26 14:42:00,43.0,29.0,30.33,WNW,290,0.0,3.0,58,0.00,,,0.00,,2013-12-26 19:42:00,
2013-12-26 14:52:00,44.0,28.0,30.33,WNW,303,0.0,5.0,54,0.00,,,0.00,,2013-12-26 19:52:00,
2013-12-26 15:22:00,45.0,28.0,30.32,SW,226,1.0,4.0,51,0.00,,,0.00,,2013-12-26 20:22:00,
2013-12-26 15:42:00,45.0,27.0,30.32,NW,312,1.0,5.0,50,0.00,,,0.00,,2013-12-26 20:42:00,
2013-12-26 15:52:00,45.0,27.0,30.32,SW,225,1.0,3.0,50,0.00,,,0.00,,2013-12-26 20:52:00,
2013-12-26 16:11:00,45.0,27.0,30.32,WNW,302,0.0,3.0,50,0.00,,,0.00,,2013-12-26 21:11:00,
2013-12-26 16:22:00,45.0,28.0,30.32,SW,225,0.0,2.0,51,0.00,,,0.00,,2013-12-26 21:22:00,
2013-12-26 16:43:00,45.0,27.0,30.32,SW,226,0.0,3.0,50,0.00,,,0.00,,2013-12-26 21:43:00,
2013-12-26 16:53:00,44.0,27.0,30.32,SSE,163,0.0,3.0,50,0.00,,,0.00,,2013-12-26 21:53:00,
2013-12-26 17:12:00,44.0,27.0,30.32,WNW,295,1.0,4.0,51,0.00,,,0.00,,2013-12-26 22:12:00,
2013-12-26 17:23:00,43.0,28.0,30.33,NW,313,0.0,4.0,54,0.00,,,0.00,,2013-12-26 22:23:00,
2013-12-26 17:52:00,41.0,27.0,30.33,South,173,1.0,3.0,57,0.00,,,0.00,,2013-12-26 22:52:00,
2013-12-26 18:22:00,39.0,27.0,30.34,SW,232,1.0,4.0,62,0.00,,,0.00,,2013-12-26 23:22:00,
2013-12-26 18:42:00,38.0,27.0,30.34,SW,217,1.0,3.0,65,0.00,,,0.00,,2013-12-26 23:42:00,
2013-12-26 18:53:00,38.0,27.0,30.34,SW,217,1.0,3.0,65,0.00,,,0.00,,2013-12-26 23:53:00,
2013-12-26 19:12:00,37.0,27.0,30.35,SSE,167,0.0,2.0,66,0.00,,,0.00,,2013-12-27 00:12:00,
2013-12-26 19:22:00,37.0,27.0,30.35,SSE,167,0.0,1.0,67,0.00,,,0.00,,2013-12-27 00:22:00,
2013-12-26 19:42:00,36.0,27.0,30.35,SSE,167,0.0,2.0,69,0.00,,,0.00,,2013-12-27 00:42:00,
2013-12-26 19:52:00,36.0,27.0,30.36,SSE,167,0.0,2.0,70,0.00,,,0.00,,2013-12-27 00:52:00,
2013-12-26 20:12:00,35.0,27.0,30.36,SSE,167,0.0,1.0,71,0.00,,,0.00,,2013-12-27 01:12:00,
2013-12-26 20:22:00,35.0,28.0,30.36,SSE,167,0.0,0.0,74,0.00,,,0.00,,2013-12-27 01:22:00,
2013-12-26 20:42:00,34.0,26.0,30.37,SSE,167,0.0,1.0,73,0.00,,,0.00,,2013-12-27 01:42:00,
2013-12-26 20:52:00,34.0,27.0,30.37,SSE,167,0.0,0.0,76,0.00,,,0.00,,2013-12-27 01:52:00,
2013-12-26 21:11:00,32.0,26.0,30.37,SSE,167,0.0,0.0,78,0.00,,,0.00,,2013-12-27 02:11:00,
2013-12-26 21:22:00,31.0,26.0,30.37,SSE,167,0.0,0.0,81,0.00,,,0.00,,2013-12-27 02:22:00,
2013-12-26 21:42:00,30.0,25.0,30.37,SSE,167,0.0,0.0,82,0.00,,,0.00,,2013-12-27 02:42:00,
2013-12-26 21:52:00,29.0,25.0,30.38,SSE,167,0.0,0.0,84,0.00,,,0.00,,2013-12-27 02:52:00,
2013-12-26 22:22:00,28.0,24.0,30.38,SSE,167,0.0,0.0,86,0.00,,,0.00,,2013-12-27 03:22:00,
2013-12-26 22:43:00,28.0,25.0,30.38,SSE,167,0.0,0.0,87,0.00,,,0.00,,2013-12-27 03:43:00,
2013-12-26 22:53:00,27.0,24.0,30.38,SSE,167,0.0,0.0,88,0.00,,,0.00,,2013-12-27 03:53:00,
2013-12-26 23:12:00,27.0,24.0,30.38,SSE,167,0.0,0.0,89,0.00,,,0.00,,2013-12-27 04:12:00,
2013-12-26 23:23:00,26.0,23.0,30.38,SSE,167,0.0,1.0,90,0.00,,,0.00,,2013-12-27 04:23:00,
2013-12-26 23:43:00,26.0,23.0,30.38,SSE,167,0.0,0.0,90,0.00,,,0.00,,2013-12-27 04:43:00,
2013-12-26 23:53:00,26.0,24.0,30.38,SSE,167,0.0,0.0,91,0.00,,,0.00,,2013-12-27 04:53:00,